Location: Arrodets-la-Barthe
(43.0306°N, 0.2829°E)
Time: 05:20:00
(UTC+00:00)

Cosmos 2278 - Pass Details

Date: 04 June 2022
Orbit: 838 x 854 km, 71.1° (Epoch: 03 July)

Event Time Altitude Azimuth Distance (km) Brightness Sun altitude
Rises 02:48:23 0° 349° (NNW) 3,428 7.5 -13.6°
Reaches altitude 10° 02:53:31 10° 28° (NNE) 2,490 7.5 -13.0°
Maximum altitude 02:54:35 11° 39° (NE) 2,455 7.6 -12.9°
Drops below altitude 10° 02:55:39 10° 50° (NE) 2,489 7.6 -12.7°
Sets 03:00:45 0° 89° (E) 3,421 7.6 -12.1°
